Time,TemperatureF,DewpointF,PressureIn,WindDirection,WindDirectionDegrees,WindSpeedMPH,WindSpeedGustMPH,Humidity,HourlyPrecipIn,Conditions,Clouds,dailyrainin,SoftwareType,DateUTC
2013-05-06 00:00:00,60.8,15.6,29.90,NE,49,6.0,6.0,17,0.00,,,0.00,Wunderground v.1.15,2013-05-06 06:00:00,
2013-05-06 00:05:00,60.6,15.5,29.90,East,94,5.0,6.0,17,0.00,,,0.00,Wunderground v.1.15,2013-05-06 06:05:00,
2013-05-06 00:10:00,60.5,15.4,29.90,East,98,5.0,6.0,17,0.00,,,0.00,Wunderground v.1.15,2013-05-06 06:10:00,
2013-05-06 00:14:00,60.5,15.4,29.90,SSW,200,5.0,6.0,17,0.00,,,0.00,Wunderground v.1.15,2013-05-06 06:14:00,
2013-05-06 00:20:00,60.3,15.2,29.90,ESE,105,4.0,5.0,17,0.00,,,0.00,Wunderground v.1.15,2013-05-06 06:20:00,
2013-05-06 00:25:00,60.1,15.1,29.91,ENE,71,4.0,5.0,17,0.00,,,0.00,Wunderground v.1.15,2013-05-06 06:25:00,
2013-05-06 00:30:00,59.9,16.2,29.90,East,82,3.0,19.0,18,0.00,,,0.00,Wunderground v.1.15,2013-05-06 06:30:00,
2013-05-06 00:35:00,59.8,16.1,29.90,ESE,111,2.0,19.0,18,0.00,,,0.00,Wunderground v.1.15,2013-05-06 06:35:00,
2013-05-06 00:40:00,59.8,16.1,29.90,SE,132,3.0,3.0,18,0.00,,,0.00,Wunderground v.1.15,2013-05-06 06:40:00,
2013-05-06 00:45:00,59.7,16.1,29.89,ESE,112,2.0,3.0,18,0.00,,,0.00,Wunderground v.1.15,2013-05-06 06:45:00,
2013-05-06 00:50:00,59.7,16.1,29.89,ESE,112,2.0,2.0,18,0.00,,,0.00,Wunderground v.1.15,2013-05-06 06:50:00,
2013-05-06 00:55:00,59.9,16.2,29.89,ESE,117,3.0,5.0,18,0.00,,,0.00,Wunderground v.1.15,2013-05-06 06:55:00,
2013-05-06 01:00:00,59.9,16.2,29.89,East,92,3.0,5.0,18,0.00,,,0.00,Wunderground v.1.15,2013-05-06 07:00:00,
2013-05-06 01:05:00,59.9,16.2,29.89,ESE,117,4.0,13.0,18,0.00,,,0.00,Wunderground v.1.15,2013-05-06 07:05:00,
2013-05-06 01:10:00,60.0,16.3,29.89,SE,146,5.0,5.0,18,0.00,,,0.00,Wunderground v.1.15,2013-05-06 07:10:00,
2013-05-06 01:15:00,59.9,16.2,29.89,NNW,331,5.0,5.0,18,0.00,,,0.00,Wunderground v.1.15,2013-05-06 07:15:00,
2013-05-06 01:20:00,59.9,16.2,29.89,East,98,3.0,3.0,18,0.00,,,0.00,Wunderground v.1.15,2013-05-06 07:20:00,
2013-05-06 01:25:00,59.9,16.2,29.88,ESE,112,3.0,7.0,18,0.00,,,0.00,Wunderground v.1.15,2013-05-06 07:25:00,
2013-05-06 01:30:00,59.9,16.2,29.88,East,85,4.0,4.0,18,0.00,,,0.00,Wunderground v.1.15,2013-05-06 07:30:00,
2013-05-06 01:35:00,59.8,16.1,29.88,ENE,74,4.0,6.0,18,0.00,,,0.00,Wunderground v.1.15,2013-05-06 07:35:00,
2013-05-06 01:40:00,59.8,16.1,29.88,East,86,4.0,4.0,18,0.00,,,0.00,Wunderground v.1.15,2013-05-06 07:40:00,
2013-05-06 01:45:00,59.9,16.2,29.88,East,93,4.0,4.0,18,0.00,,,0.00,Wunderground v.1.15,2013-05-06 07:45:00,
2013-05-06 01:50:00,59.9,16.2,29.88,ESE,102,5.0,5.0,18,0.00,,,0.00,Wunderground v.1.15,2013-05-06 07:50:00,
2013-05-06 02:00:00,59.9,16.2,29.88,ESE,111,4.0,5.0,18,0.00,,,0.00,Wunderground v.1.15,2013-05-06 08:00:00,
2013-05-06 02:05:00,60.1,16.4,29.88,ESE,107,4.0,5.0,18,0.00,,,0.00,Wunderground v.1.15,2013-05-06 08:05:00,
2013-05-06 02:10:00,60.1,16.4,29.87,East,84,4.0,5.0,18,0.00,,,0.00,Wunderground v.1.15,2013-05-06 08:10:00,
2013-05-06 02:15:00,60.1,16.4,29.87,ESE,119,3.0,5.0,18,0.00,,,0.00,Wunderground v.1.15,2013-05-06 08:15:00,
2013-05-06 02:20:00,60.1,16.4,29.87,ESE,114,3.0,7.0,18,0.00,,,0.00,Wunderground v.1.15,2013-05-06 08:20:00,
2013-05-06 02:30:00,59.8,16.1,29.87,NE,53,4.0,4.0,18,0.00,,,0.00,Wunderground v.1.15,2013-05-06 08:30:00,
2013-05-06 02:35:00,59.9,17.5,29.87,ESE,110,3.0,4.0,19,0.00,,,0.00,Wunderground v.1.15,2013-05-06 08:35:00,
2013-05-06 02:40:00,59.9,17.5,29.87,SE,142,2.0,2.0,19,0.00,,,0.00,Wunderground v.1.15,2013-05-06 08:40:00,
2013-05-06 02:45:00,59.9,16.2,29.87,ESE,122,3.0,3.0,18,0.00,,,0.00,Wunderground v.1.15,2013-05-06 08:45:00,
2013-05-06 02:50:00,59.8,16.1,29.87,East,87,3.0,7.0,18,0.00,,,0.00,Wunderground v.1.15,2013-05-06 08:50:00,
2013-05-06 02:55:00,59.8,17.4,29.87,ESE,123,3.0,7.0,19,0.00,,,0.00,Wunderground v.1.15,2013-05-06 08:55:00,
2013-05-06 03:00:00,59.8,16.1,29.87,East,94,3.0,10.0,18,0.00,,,0.00,Wunderground v.1.15,2013-05-06 09:00:00,
2013-05-06 03:05:00,59.7,16.1,29.87,ESE,117,3.0,10.0,18,0.00,,,0.00,Wunderground v.1.15,2013-05-06 09:05:00,
2013-05-06 03:10:00,59.7,17.3,29.87,ESE,111,3.0,5.0,19,0.00,,,0.00,Wunderground v.1.15,2013-05-06 09:10:00,
2013-05-06 03:15:00,59.7,17.3,29.87,East,90,3.0,5.0,19,0.00,,,0.00,Wunderground v.1.15,2013-05-06 09:15:00,
2013-05-06 03:20:00,59.6,16.0,29.87,ESE,110,3.0,3.0,18,0.00,,,0.00,Wunderground v.1.15,2013-05-06 09:20:00,
2013-05-06 03:24:00,59.5,15.9,29.87,ESE,113,3.0,3.0,18,0.00,,,0.00,Wunderground v.1.15,2013-05-06 09:24:00,
2013-05-06 03:30:00,59.4,17.1,29.87,SSE,148,3.0,11.0,19,0.00,,,0.00,Wunderground v.1.15,2013-05-06 09:30:00,
2013-05-06 03:35:00,59.2,16.9,29.87,ESE,112,3.0,11.0,19,0.00,,,0.00,Wunderground v.1.15,2013-05-06 09:35:00,
2013-05-06 03:40:00,59.0,16.7,29.87,East,101,2.0,2.0,19,0.00,,,0.00,Wunderground v.1.15,2013-05-06 09:40:00,
2013-05-06 03:45:00,59.0,16.7,29.88,ESE,123,2.0,2.0,19,0.00,,,0.00,Wunderground v.1.15,2013-05-06 09:45:00,
2013-05-06 03:55:00,59.0,16.7,29.88,ESE,109,1.0,2.0,19,0.00,,,0.00,Wunderground v.1.15,2013-05-06 09:55:00,
2013-05-06 04:00:00,59.0,16.7,29.87,ESE,107,2.0,2.0,19,0.00,,,0.00,Wunderground v.1.15,2013-05-06 10:00:00,
2013-05-06 04:09:00,59.0,16.7,29.87,East,99,2.0,2.0,19,0.00,,,0.00,Wunderground v.1.15,2013-05-06 10:09:00,
2013-05-06 04:15:00,59.0,17.9,29.86,ESE,103,1.0,2.0,20,0.00,,,0.00,Wunderground v.1.15,2013-05-06 10:15:00,
2013-05-06 04:20:00,59.0,16.7,29.86,ESE,103,1.0,1.0,19,0.00,,,0.00,Wunderground v.1.15,2013-05-06 10:20:00,
2013-05-06 04:25:00,59.0,17.9,29.87,ESE,103,0.0,1.0,20,0.00,,,0.00,Wunderground v.1.15,2013-05-06 10:25:00,
2013-05-06 04:30:00,59.0,17.9,29.86,ESE,103,0.0,10.0,20,0.00,,,0.00,Wunderground v.1.15,2013-05-06 10:30:00,
2013-05-06 04:35:00,58.7,17.7,29.86,ESE,103,0.0,10.0,20,0.00,,,0.00,Wunderground v.1.15,2013-05-06 10:35:00,
2013-05-06 04:40:00,58.1,18.3,29.86,ESE,103,0.0,0.0,21,0.00,,,0.00,Wunderground v.1.15,2013-05-06 10:40:00,
2013-05-06 04:45:00,57.6,17.9,29.86,ESE,103,0.0,0.0,21,0.00,,,0.00,Wunderground v.1.15,2013-05-06 10:45:00,
2013-05-06 04:50:00,57.4,17.7,29.85,East,101,0.0,0.0,21,0.00,,,0.00,Wunderground v.1.15,2013-05-06 10:50:00,
2013-05-06 04:54:00,57.2,17.6,29.86,East,99,1.0,1.0,21,0.00,,,0.00,Wunderground v.1.15,2013-05-06 10:54:00,
2013-05-06 05:00:00,57.1,17.5,29.85,North,355,2.0,2.0,21,0.00,,,0.00,Wunderground v.1.15,2013-05-06 11:00:00,
2013-05-06 05:05:00,56.9,17.3,29.85,North,355,1.0,2.0,21,0.00,,,0.00,Wunderground v.1.15,2013-05-06 11:05:00,
2013-05-06 05:10:00,56.8,17.2,29.85,North,355,0.0,0.0,21,0.00,,,0.00,Wunderground v.1.15,2013-05-06 11:10:00,
2013-05-06 05:15:00,56.6,18.1,29.85,North,355,0.0,0.0,22,0.00,,,0.00,Wunderground v.1.15,2013-05-06 11:15:00,
2013-05-06 05:20:00,56.5,18.1,29.85,North,355,0.0,0.0,22,0.00,,,0.00,Wunderground v.1.15,2013-05-06 11:20:00,
2013-05-06 05:25:00,56.3,18.9,29.85,North,355,0.0,0.0,23,0.00,,,0.00,Wunderground v.1.15,2013-05-06 11:25:00,
2013-05-06 05:30:00,56.0,18.7,29.85,North,355,0.0,3.0,23,0.00,,,0.00,Wunderground v.1.15,2013-05-06 11:30:00,
2013-05-06 05:35:00,55.7,18.4,29.85,North,355,0.0,3.0,23,0.00,,,0.00,Wunderground v.1.15,2013-05-06 11:35:00,
2013-05-06 05:39:00,55.4,19.2,29.85,North,355,0.0,0.0,24,0.00,,,0.00,Wunderground v.1.15,2013-05-06 11:39:00,
2013-05-06 05:44:00,55.1,18.9,29.85,North,355,0.0,0.0,24,0.00,,,0.00,Wunderground v.1.15,2013-05-06 11:44:00,
2013-05-06 05:50:00,54.9,19.7,29.85,North,355,0.0,0.0,25,0.00,,,0.00,Wunderground v.1.15,2013-05-06 11:50:00,
2013-05-06 05:55:00,54.8,19.6,29.85,North,355,0.0,0.0,25,0.00,,,0.00,Wunderground v.1.15,2013-05-06 11:55:00,
2013-05-06 06:05:00,54.8,19.6,29.84,North,355,0.0,0.0,25,0.00,,,0.00,Wunderground v.1.15,2013-05-06 12:05:00,
2013-05-06 06:10:00,54.7,19.5,29.84,North,355,0.0,0.0,25,0.00,,,0.00,Wunderground v.1.15,2013-05-06 12:10:00,
2013-05-06 06:15:00,54.6,19.4,29.84,North,355,0.0,0.0,25,0.00,,,0.00,Wunderground v.1.15,2013-05-06 12:15:00,
2013-05-06 06:20:00,54.6,19.4,29.84,North,355,0.0,0.0,25,0.00,,,0.00,Wunderground v.1.15,2013-05-06 12:20:00,
2013-05-06 06:25:00,54.5,19.3,29.84,North,355,0.0,0.0,25,0.00,,,0.00,Wunderground v.1.15,2013-05-06 12:25:00,
2013-05-06 06:30:00,54.3,20.1,29.84,North,355,0.0,0.0,26,0.00,,,0.00,Wunderground v.1.15,2013-05-06 12:30:00,
2013-05-06 06:35:00,54.1,19.9,29.84,North,355,0.0,0.0,26,0.00,,,0.00,Wunderground v.1.15,2013-05-06 12:35:00,
2013-05-06 06:45:00,54.0,21.6,29.84,North,355,0.0,0.0,28,0.00,,,0.00,Wunderground v.1.15,2013-05-06 12:45:00,
2013-05-06 06:50:00,54.5,20.3,29.84,NNW,340,0.0,1.0,26,0.00,,,0.00,Wunderground v.1.15,2013-05-06 12:50:00,
2013-05-06 06:55:00,55.0,21.6,29.84,NNW,340,0.0,1.0,27,0.00,,,0.00,Wunderground v.1.15,2013-05-06 12:55:00,
2013-05-06 06:59:00,55.4,20.1,29.85,NNW,343,0.0,2.0,25,0.00,,,0.00,Wunderground v.1.15,2013-05-06 12:59:00,
2013-05-06 07:05:00,55.8,20.5,29.85,South,180,1.0,5.0,25,0.00,,,0.00,Wunderground v.1.15,2013-05-06 13:05:00,
2013-05-06 07:10:00,56.0,20.6,29.86,SSW,196,2.0,4.0,25,0.00,,,0.00,Wunderground v.1.15,2013-05-06 13:10:00,
2013-05-06 07:15:00,56.1,20.7,29.86,SSW,200,1.0,4.0,25,0.00,,,0.00,Wunderground v.1.15,2013-05-06 13:15:00,
2013-05-06 07:20:00,56.2,20.8,29.86,SSW,200,0.0,0.0,25,0.00,,,0.00,Wunderground v.1.15,2013-05-06 13:20:00,
2013-05-06 07:25:00,56.3,20.9,29.86,SSW,200,0.0,0.0,25,0.00,,,0.00,Wunderground v.1.15,2013-05-06 13:25:00,
2013-05-06 07:30:00,56.5,21.1,29.87,SSW,200,0.0,0.0,25,0.00,,,0.00,Wunderground v.1.15,2013-05-06 13:30:00,
2013-05-06 07:35:00,56.8,21.3,29.86,SSW,200,0.0,0.0,25,0.00,,,0.00,Wunderground v.1.15,2013-05-06 13:35:00,
2013-05-06 07:40:00,57.1,21.6,29.87,SSW,200,0.0,3.0,25,0.00,,,0.00,Wunderground v.1.15,2013-05-06 13:40:00,
2013-05-06 07:45:00,57.4,21.8,29.87,SSW,204,1.0,3.0,25,0.00,,,0.00,Wunderground v.1.15,2013-05-06 13:45:00,
2013-05-06 07:49:00,57.6,21.0,29.87,SSW,204,1.0,1.0,24,0.00,,,0.00,Wunderground v.1.15,2013-05-06 13:49:00,
2013-05-06 07:54:00,57.9,20.3,29.87,SSW,204,0.0,1.0,23,0.00,,,0.00,Wunderground v.1.15,2013-05-06 13:54:00,
2013-05-06 08:00:00,58.4,19.7,29.87,ESE,107,1.0,1.0,22,0.00,,,0.00,Wunderground v.1.15,2013-05-06 14:00:00,
2013-05-06 08:05:00,59.0,20.2,29.88,East,101,2.0,2.0,22,0.00,,,0.00,Wunderground v.1.15,2013-05-06 14:05:00,
2013-05-06 08:10:00,59.0,20.2,29.88,ESE,110,2.0,6.0,22,0.00,,,0.00,Wunderground v.1.15,2013-05-06 14:10:00,
2013-05-06 08:15:00,59.0,20.2,29.88,SSE,147,2.0,6.0,22,0.00,,,0.00,Wunderground v.1.15,2013-05-06 14:15:00,
2013-05-06 08:20:00,59.0,20.2,29.88,ESE,122,2.0,2.0,22,0.00,,,0.00,Wunderground v.1.15,2013-05-06 14:20:00,
2013-05-06 08:30:00,59.2,20.3,29.88,ESE,110,2.0,2.0,22,0.00,,,0.00,Wunderground v.1.15,2013-05-06 14:30:00,
2013-05-06 08:35:00,59.6,20.7,29.88,ESE,117,2.0,2.0,22,0.00,,,0.00,Wunderground v.1.15,2013-05-06 14:35:00,
2013-05-06 08:39:00,59.9,20.9,29.89,ESE,123,2.0,2.0,22,0.00,,,0.00,Wunderground v.1.15,2013-05-06 14:39:00,
2013-05-06 08:44:00,60.4,21.3,29.89,ESE,107,2.0,5.0,22,0.00,,,0.00,Wunderground v.1.15,2013-05-06 14:44:00,
2013-05-06 08:50:00,60.9,21.8,29.89,SE,128,2.0,2.0,22,0.00,,,0.00,Wunderground v.1.15,2013-05-06 14:50:00,
2013-05-06 08:55:00,61.2,22.0,29.89,ESE,105,2.0,2.0,22,0.00,,,0.00,Wunderground v.1.15,2013-05-06 14:55:00,
2013-05-06 09:00:00,61.4,22.2,29.89,ESE,115,2.0,2.0,22,0.00,,,0.00,Wunderground v.1.15,2013-05-06 15:00:00,
2013-05-06 09:10:00,61.6,22.3,29.89,SE,142,1.0,1.0,22,0.00,,,0.00,Wunderground v.1.15,2013-05-06 15:10:00,
2013-05-06 09:15:00,61.5,23.3,29.89,SE,142,1.0,1.0,23,0.00,,,0.00,Wunderground v.1.15,2013-05-06 15:15:00,
2013-05-06 09:20:00,61.6,22.3,29.89,SSW,192,1.0,1.0,22,0.00,,,0.00,Wunderground v.1.15,2013-05-06 15:20:00,
2013-05-06 09:25:00,61.8,21.4,29.89,South,190,3.0,3.0,21,0.00,,,0.00,Wunderground v.1.15,2013-05-06 15:25:00,
2013-05-06 09:30:00,62.1,21.7,29.89,South,184,3.0,7.0,21,0.00,,,0.00,Wunderground v.1.15,2013-05-06 15:30:00,
2013-05-06 09:35:00,62.7,23.3,29.89,SE,136,4.0,7.0,22,0.00,,,0.00,Wunderground v.1.15,2013-05-06 15:35:00,
2013-05-06 09:40:00,63.2,24.7,29.89,SSE,160,3.0,5.0,23,0.00,,,0.00,Wunderground v.1.15,2013-05-06 15:40:00,
2013-05-06 09:45:00,63.6,24.0,29.89,South,188,3.0,5.0,22,0.00,,,0.00,Wunderground v.1.15,2013-05-06 15:45:00,
2013-05-06 09:50:00,64.1,24.4,29.89,South,187,4.0,10.0,22,0.00,,,0.00,Wunderground v.1.15,2013-05-06 15:50:00,
2013-05-06 09:55:00,63.9,23.2,29.89,SSW,198,5.0,10.0,21,0.00,,,0.00,Wunderground v.1.15,2013-05-06 15:55:00,
2013-05-06 10:00:00,63.5,23.9,29.89,SSE,148,5.0,5.0,22,0.00,,,0.00,Wunderground v.1.15,2013-05-06 16:00:00,
2013-05-06 10:04:00,64.0,24.4,29.90,SW,215,6.0,6.0,22,0.00,,,0.00,Wunderground v.1.15,2013-05-06 16:04:00,
2013-05-06 10:10:00,63.6,31.6,29.91,SSW,210,6.0,11.0,30,0.00,,,0.00,Wunderground v.1.15,2013-05-06 16:10:00,
2013-05-06 10:15:00,61.7,33.7,29.91,SSW,196,8.0,11.0,35,0.00,,,0.00,Wunderground v.1.15,2013-05-06 16:15:00,
2013-05-06 10:20:00,60.4,34.0,29.92,WSW,258,8.0,11.0,37,0.00,,,0.00,Wunderground v.1.15,2013-05-06 16:20:00,
2013-05-06 10:25:00,59.0,34.1,29.92,SW,235,8.0,11.0,39,0.00,,,0.00,Wunderground v.1.15,2013-05-06 16:25:00,
2013-05-06 10:35:00,59.0,35.3,29.92,SW,217,7.0,9.0,41,0.00,,,0.00,Wunderground v.1.15,2013-05-06 16:35:00,
2013-05-06 10:45:00,59.4,37.5,29.91,SSW,210,6.0,7.0,44,0.00,,,0.00,Wunderground v.1.15,2013-05-06 16:45:00,
2013-05-06 10:50:00,59.5,37.0,29.92,South,184,6.0,6.0,43,0.00,,,0.00,Wunderground v.1.15,2013-05-06 16:50:00,
2013-05-06 10:55:00,60.5,37.9,29.91,South,185,4.0,6.0,43,0.00,,,0.00,Wunderground v.1.15,2013-05-06 16:55:00,
2013-05-06 11:00:00,60.5,37.3,29.91,SSE,150,3.0,3.0,42,0.00,,,0.00,Wunderground v.1.15,2013-05-06 17:00:00,
2013-05-06 11:05:00,60.7,36.8,29.91,South,178,4.0,4.0,41,0.00,,,0.00,Wunderground v.1.15,2013-05-06 17:05:00,
2013-05-06 11:10:00,60.7,35.6,29.91,SSW,213,4.0,4.0,39,0.00,,,0.00,Wunderground v.1.15,2013-05-06 17:10:00,
2013-05-06 11:15:00,61.4,36.2,29.90,South,182,3.0,4.0,39,0.00,,,0.00,Wunderground v.1.15,2013-05-06 17:15:00,
2013-05-06 11:20:00,62.0,35.4,29.90,SSW,204,2.0,2.0,37,0.00,,,0.00,Wunderground v.1.15,2013-05-06 17:20:00,
2013-05-06 11:25:00,61.6,35.7,29.90,SSW,194,3.0,3.0,38,0.00,,,0.00,Wunderground v.1.15,2013-05-06 17:25:00,
2013-05-06 11:30:00,61.2,36.0,29.90,SSW,210,4.0,18.0,39,0.00,,,0.00,Wunderground v.1.15,2013-05-06 17:30:00,
2013-05-06 11:35:00,61.0,36.5,29.90,South,182,5.0,18.0,40,0.00,,,0.00,Wunderground v.1.15,2013-05-06 17:35:00,
2013-05-06 11:40:00,62.7,36.7,29.90,SSW,192,4.0,5.0,38,0.00,,,0.00,Wunderground v.1.15,2013-05-06 17:40:00,
2013-05-06 11:45:00,62.6,35.9,29.90,SSW,192,6.0,6.0,37,0.00,,,0.00,Wunderground v.1.15,2013-05-06 17:45:00,
2013-05-06 11:50:00,63.4,36.0,29.90,SSE,150,7.0,7.0,36,0.00,,,0.00,Wunderground v.1.15,2013-05-06 17:50:00,
2013-05-06 11:54:00,63.3,35.9,29.90,SSW,208,5.0,7.0,36,0.00,,,0.00,Wunderground v.1.15,2013-05-06 17:54:00,
2013-05-06 12:00:00,62.8,36.8,29.90,South,171,6.0,6.0,38,0.00,,,0.00,Wunderground v.1.15,2013-05-06 18:00:00,
2013-05-06 12:05:00,63.7,36.2,29.90,South,181,7.0,7.0,36,0.00,,,0.00,Wunderground v.1.15,2013-05-06 18:05:00,
2013-05-06 12:10:00,64.0,36.5,29.90,SSW,203,7.0,7.0,36,0.00,,,0.00,Wunderground v.1.15,2013-05-06 18:10:00,
2013-05-06 12:15:00,64.9,38.0,29.90,SSW,192,7.0,7.0,37,0.00,,,0.00,Wunderground v.1.15,2013-05-06 18:15:00,
2013-05-06 12:20:00,65.0,38.1,29.90,South,190,6.0,6.0,37,0.00,,,0.00,Wunderground v.1.15,2013-05-06 18:20:00,
2013-05-06 12:25:00,65.5,37.8,29.89,SSW,213,5.0,9.0,36,0.00,,,0.00,Wunderground v.1.15,2013-05-06 18:25:00,
2013-05-06 12:30:00,65.4,37.7,29.90,SW,219,5.0,10.0,36,0.00,,,0.00,Wunderground v.1.15,2013-05-06 18:30:00,
2013-05-06 12:34:00,64.9,37.3,29.90,SSW,207,7.0,10.0,36,0.00,,,0.00,Wunderground v.1.15,2013-05-06 18:34:00,
2013-05-06 12:39:00,64.4,36.1,29.90,SW,234,7.0,11.0,35,0.00,,,0.00,Wunderground v.1.15,2013-05-06 18:39:00,
2013-05-06 12:45:00,64.3,37.5,29.89,SSW,198,6.0,11.0,37,0.00,,,0.00,Wunderground v.1.15,2013-05-06 18:45:00,
2013-05-06 12:50:00,65.2,36.1,29.89,SW,215,5.0,16.0,34,0.00,,,0.00,Wunderground v.1.15,2013-05-06 18:50:00,
2013-05-06 12:55:00,65.5,35.6,29.89,WNW,302,5.0,16.0,33,0.00,,,0.00,Wunderground v.1.15,2013-05-06 18:55:00,
2013-05-06 13:00:00,65.9,36.0,29.89,SW,223,5.0,5.0,33,0.00,,,0.00,Wunderground v.1.15,2013-05-06 19:00:00,
2013-05-06 13:05:00,65.2,36.1,29.89,SSW,205,5.0,14.0,34,0.00,,,0.00,Wunderground v.1.15,2013-05-06 19:05:00,
2013-05-06 13:10:00,65.1,36.0,29.89,WNW,291,6.0,7.0,34,0.00,,,0.00,Wunderground v.1.15,2013-05-06 19:10:00,
2013-05-06 13:15:00,64.9,35.1,29.89,WSW,243,6.0,7.0,33,0.00,,,0.00,Wunderground v.1.15,2013-05-06 19:15:00,
2013-05-06 13:20:00,64.8,35.0,29.89,SW,219,6.0,6.0,33,0.00,,,0.00,Wunderground v.1.15,2013-05-06 19:20:00,
2013-05-06 13:24:00,65.3,35.4,29.89,SSE,165,7.0,7.0,33,0.00,,,0.00,Wunderground v.1.15,2013-05-06 19:24:00,
2013-05-06 13:30:00,65.6,34.9,29.89,SW,227,6.0,22.0,32,0.00,,,0.00,Wunderground v.1.15,2013-05-06 19:30:00,
2013-05-06 13:35:00,66.3,35.5,29.89,West,260,5.0,22.0,32,0.00,,,0.00,Wunderground v.1.15,2013-05-06 19:35:00,
2013-05-06 13:40:00,67.3,34.8,29.89,West,276,4.0,5.0,30,0.00,,,0.00,Wunderground v.1.15,2013-05-06 19:40:00,
2013-05-06 13:45:00,68.2,35.6,29.88,West,272,4.0,5.0,30,0.00,,,0.00,Wunderground v.1.15,2013-05-06 19:45:00,
2013-05-06 13:50:00,68.8,34.3,29.88,SW,223,4.0,7.0,28,0.00,,,0.00,Wunderground v.1.15,2013-05-06 19:50:00,
2013-05-06 13:55:00,68.2,33.8,29.88,West,280,5.0,7.0,28,0.00,,,0.00,Wunderground v.1.15,2013-05-06 19:55:00,
2013-05-06 13:59:00,68.4,34.9,29.88,South,190,5.0,5.0,29,0.00,,,0.00,Wunderground v.1.15,2013-05-06 19:59:00,
2013-05-06 14:04:00,68.6,34.2,29.88,SW,216,4.0,5.0,28,0.00,,,0.00,Wunderground v.1.15,2013-05-06 20:04:00,
2013-05-06 14:10:00,68.6,35.1,29.88,SSW,194,4.0,6.0,29,0.00,,,0.00,Wunderground v.1.15,2013-05-06 20:10:00,
2013-05-06 14:15:00,68.8,34.3,29.88,West,269,4.0,6.0,28,0.00,,,0.00,Wunderground v.1.15,2013-05-06 20:15:00,
2013-05-06 14:20:00,68.1,35.5,29.87,South,182,3.0,7.0,30,0.00,,,0.00,Wunderground v.1.15,2013-05-06 20:20:00,
2013-05-06 14:25:00,68.3,35.6,29.87,West,281,3.0,7.0,30,0.00,,,0.00,Wunderground v.1.15,2013-05-06 20:25:00,
2013-05-06 14:30:00,69.4,34.9,29.87,West,281,4.0,11.0,28,0.00,,,0.00,Wunderground v.1.15,2013-05-06 20:30:00,
2013-05-06 14:35:00,69.8,33.3,29.87,SW,219,5.0,11.0,26,0.00,,,0.00,Wunderground v.1.15,2013-05-06 20:35:00,
2013-05-06 14:40:00,69.7,33.3,29.87,SSW,196,5.0,5.0,26,0.00,,,0.00,Wunderground v.1.15,2013-05-06 20:40:00,
2013-05-06 14:45:00,70.1,32.6,29.87,West,281,4.0,6.0,25,0.00,,,0.00,Wunderground v.1.15,2013-05-06 20:45:00,
2013-05-06 14:50:00,69.4,33.0,29.87,West,269,4.0,4.0,26,0.00,,,0.00,Wunderground v.1.15,2013-05-06 20:50:00,
2013-05-06 14:55:00,69.1,32.7,29.86,SW,219,3.0,4.0,26,0.00,,,0.00,Wunderground v.1.15,2013-05-06 20:55:00,
2013-05-06 15:00:00,68.3,31.1,29.86,SW,222,4.0,4.0,25,0.00,,,0.00,Wunderground v.1.15,2013-05-06 21:00:00,
2013-05-06 15:05:00,67.4,32.2,29.86,West,270,4.0,6.0,27,0.00,,,0.00,Wunderground v.1.15,2013-05-06 21:05:00,
2013-05-06 15:10:00,67.4,31.3,29.86,SSW,213,3.0,11.0,26,0.00,,,0.00,Wunderground v.1.15,2013-05-06 21:10:00,
2013-05-06 15:15:00,67.5,31.4,29.86,SW,223,4.0,11.0,26,0.00,,,0.00,Wunderground v.1.15,2013-05-06 21:15:00,
2013-05-06 15:20:00,68.8,32.5,29.86,WNW,298,5.0,5.0,26,0.00,,,0.00,Wunderground v.1.15,2013-05-06 21:20:00,
2013-05-06 15:25:00,69.9,31.4,29.86,NW,316,5.0,5.0,24,0.00,,,0.00,Wunderground v.1.15,2013-05-06 21:25:00,
2013-05-06 15:30:00,70.8,30.0,29.86,WNW,282,4.0,4.0,22,0.00,,,0.00,Wunderground v.1.15,2013-05-06 21:30:00,
2013-05-06 15:35:00,71.4,30.5,29.85,West,259,4.0,4.0,22,0.00,,,0.00,Wunderground v.1.15,2013-05-06 21:35:00,
2013-05-06 15:40:00,71.1,29.2,29.85,WSW,242,3.0,6.0,21,0.00,,,0.00,Wunderground v.1.15,2013-05-06 21:40:00,
2013-05-06 15:45:00,71.3,29.3,29.85,SW,233,4.0,6.0,21,0.00,,,0.00,Wunderground v.1.15,2013-05-06 21:45:00,
2013-05-06 15:50:00,71.0,29.1,29.85,SW,236,5.0,9.0,21,0.00,,,0.00,Wunderground v.1.15,2013-05-06 21:50:00,
2013-05-06 15:55:00,71.3,29.3,29.85,SW,217,6.0,9.0,21,0.00,,,0.00,Wunderground v.1.15,2013-05-06 21:55:00,
2013-05-06 15:59:00,71.0,29.1,29.85,SW,233,5.0,5.0,21,0.00,,,0.00,Wunderground v.1.15,2013-05-06 21:59:00,
2013-05-06 16:05:00,70.5,28.7,29.84,SW,223,5.0,5.0,21,0.00,,,0.00,Wunderground v.1.15,2013-05-06 22:05:00,
2013-05-06 16:10:00,70.5,29.8,29.85,SW,214,5.0,14.0,22,0.00,,,0.00,Wunderground v.1.15,2013-05-06 22:10:00,
2013-05-06 16:15:00,70.2,29.5,29.85,South,179,5.0,14.0,22,0.00,,,0.00,Wunderground v.1.15,2013-05-06 22:15:00,
2013-05-06 16:20:00,69.7,29.1,29.84,South,188,5.0,5.0,22,0.00,,,0.00,Wunderground v.1.15,2013-05-06 22:20:00,
2013-05-06 16:25:00,69.6,29.0,29.84,West,268,3.0,5.0,22,0.00,,,0.00,Wunderground v.1.15,2013-05-06 22:25:00,
2013-05-06 16:30:00,69.6,29.0,29.84,SSW,213,2.0,10.0,22,0.00,,,0.00,Wunderground v.1.15,2013-05-06 22:30:00,
2013-05-06 16:35:00,70.1,29.5,29.84,South,173,3.0,10.0,22,0.00,,,0.00,Wunderground v.1.15,2013-05-06 22:35:00,
2013-05-06 16:40:00,70.7,30.0,29.84,NNW,337,3.0,4.0,22,0.00,,,0.00,Wunderground v.1.15,2013-05-06 22:40:00,
2013-05-06 16:44:00,70.2,29.5,29.84,WNW,296,2.0,4.0,22,0.00,,,0.00,Wunderground v.1.15,2013-05-06 22:44:00,
2013-05-06 16:55:00,71.3,29.3,29.83,South,190,3.0,6.0,21,0.00,,,0.00,Wunderground v.1.15,2013-05-06 22:55:00,
2013-05-06 17:00:00,70.0,28.2,29.83,SW,216,5.0,5.0,21,0.00,,,0.00,Wunderground v.1.15,2013-05-06 23:00:00,
2013-05-06 17:05:00,69.5,27.8,29.83,SSW,205,5.0,5.0,21,0.00,,,0.00,Wunderground v.1.15,2013-05-06 23:05:00,
2013-05-06 17:10:00,69.3,28.8,29.83,WSW,237,3.0,3.0,22,0.00,,,0.00,Wunderground v.1.15,2013-05-06 23:10:00,
2013-05-06 17:15:00,69.5,27.8,29.83,South,184,3.0,4.0,21,0.00,,,0.00,Wunderground v.1.15,2013-05-06 23:15:00,
2013-05-06 17:20:00,69.6,27.9,29.83,SW,219,2.0,2.0,21,0.00,,,0.00,Wunderground v.1.15,2013-05-06 23:20:00,
2013-05-06 17:25:00,70.1,28.3,29.83,West,263,2.0,2.0,21,0.00,,,0.00,Wunderground v.1.15,2013-05-06 23:25:00,
2013-05-06 17:30:00,70.0,28.2,29.83,SSW,211,2.0,9.0,21,0.00,,,0.00,Wunderground v.1.15,2013-05-06 23:30:00,
2013-05-06 17:35:00,69.8,26.9,29.83,SW,236,3.0,9.0,20,0.00,,,0.00,Wunderground v.1.15,2013-05-06 23:35:00,
2013-05-06 17:39:00,69.7,26.8,29.83,WNW,288,3.0,3.0,20,0.00,,,0.00,Wunderground v.1.15,2013-05-06 23:39:00,
2013-05-06 17:44:00,69.5,26.6,29.83,West,279,4.0,4.0,20,0.00,,,0.00,Wunderground v.1.15,2013-05-06 23:44:00,
2013-05-06 17:50:00,70.2,26.0,29.83,West,268,3.0,6.0,19,0.00,,,0.00,Wunderground v.1.15,2013-05-06 23:50:00,
2013-05-06 17:55:00,70.2,26.0,29.83,SW,223,3.0,6.0,19,0.00,,,0.00,Wunderground v.1.15,2013-05-06 23:55:00,
2013-05-06 18:00:00,69.9,27.0,29.83,West,281,3.0,3.0,20,0.00,,,0.00,Wunderground v.1.15,2013-05-07 00:00:00,
2013-05-06 18:05:00,69.6,26.7,29.83,SSW,207,4.0,4.0,20,0.00,,,0.00,Wunderground v.1.15,2013-05-07 00:05:00,
2013-05-06 18:10:00,70.0,27.0,29.83,West,269,3.0,5.0,20,0.00,,,0.00,Wunderground v.1.15,2013-05-07 00:10:00,
2013-05-06 18:15:00,70.2,26.0,29.83,SW,214,3.0,5.0,19,0.00,,,0.00,Wunderground v.1.15,2013-05-07 00:15:00,
2013-05-06 18:20:00,70.7,26.4,29.83,WNW,302,3.0,3.0,19,0.00,,,0.00,Wunderground v.1.15,2013-05-07 00:20:00,
2013-05-06 18:25:00,71.4,25.7,29.83,WSW,258,3.0,3.0,18,0.00,,,0.00,Wunderground v.1.15,2013-05-07 00:25:00,
2013-05-06 18:29:00,71.4,25.7,29.83,West,265,4.0,10.0,18,0.00,,,0.00,Wunderground v.1.15,2013-05-07 00:29:00,
2013-05-06 18:34:00,71.3,25.6,29.83,South,178,4.0,10.0,18,0.00,,,0.00,Wunderground v.1.15,2013-05-07 00:34:00,
2013-05-06 18:40:00,71.1,25.4,29.83,SW,214,3.0,3.0,18,0.00,,,0.00,Wunderground v.1.15,2013-05-07 00:40:00,
2013-05-06 18:45:00,70.8,26.5,29.83,West,278,4.0,4.0,19,0.00,,,0.00,Wunderground v.1.15,2013-05-07 00:45:00,
2013-05-06 18:50:00,70.6,26.3,29.83,West,273,3.0,3.0,19,0.00,,,0.00,Wunderground v.1.15,2013-05-07 00:50:00,
2013-05-06 18:55:00,70.3,26.1,29.83,SW,220,3.0,3.0,19,0.00,,,0.00,Wunderground v.1.15,2013-05-07 00:55:00,
2013-05-06 19:00:00,70.2,26.0,29.83,West,268,3.0,4.0,19,0.00,,,0.00,Wunderground v.1.15,2013-05-07 01:00:00,
2013-05-06 19:05:00,69.8,26.9,29.83,SSW,205,3.0,4.0,20,0.00,,,0.00,Wunderground v.1.15,2013-05-07 01:05:00,
2013-05-06 19:10:00,69.6,26.7,29.83,SSW,202,2.0,7.0,20,0.00,,,0.00,Wunderground v.1.15,2013-05-07 01:10:00,
2013-05-06 19:15:00,69.2,26.4,29.83,SSW,205,2.0,7.0,20,0.00,,,0.00,Wunderground v.1.15,2013-05-07 01:15:00,
2013-05-06 19:19:00,69.0,26.2,29.83,West,275,2.0,4.0,20,0.00,,,0.00,Wunderground v.1.15,2013-05-07 01:19:00,
2013-05-06 19:24:00,68.9,26.1,29.83,West,275,1.0,4.0,20,0.00,,,0.00,Wunderground v.1.15,2013-05-07 01:24:00,
2013-05-06 19:30:00,68.6,25.9,29.83,SSW,197,2.0,2.0,20,0.00,,,0.00,Wunderground v.1.15,2013-05-07 01:30:00,
2013-05-06 19:35:00,68.4,26.9,29.84,SSW,192,2.0,2.0,21,0.00,,,0.00,Wunderground v.1.15,2013-05-07 01:35:00,
2013-05-06 19:40:00,68.1,26.7,29.84,SW,229,1.0,1.0,21,0.00,,,0.00,Wunderground v.1.15,2013-05-07 01:40:00,
2013-05-06 19:45:00,67.9,26.5,29.84,WNW,290,1.0,1.0,21,0.00,,,0.00,Wunderground v.1.15,2013-05-07 01:45:00,
2013-05-06 19:50:00,67.7,26.3,29.84,WNW,283,1.0,4.0,21,0.00,,,0.00,Wunderground v.1.15,2013-05-07 01:50:00,
2013-05-06 19:55:00,67.5,26.2,29.84,WNW,283,1.0,4.0,21,0.00,,,0.00,Wunderground v.1.15,2013-05-07 01:55:00,
2013-05-06 20:00:00,67.3,26.0,29.85,WNW,283,0.0,0.0,21,0.00,,,0.00,Wunderground v.1.15,2013-05-07 02:00:00,
2013-05-06 20:05:00,67.0,25.7,29.85,WNW,283,0.0,0.0,21,0.00,,,0.00,Wunderground v.1.15,2013-05-07 02:05:00,
2013-05-06 20:10:00,66.7,26.6,29.85,WNW,283,0.0,0.0,22,0.00,,,0.00,Wunderground v.1.15,2013-05-07 02:10:00,
2013-05-06 20:14:00,66.5,26.4,29.85,WNW,283,0.0,0.0,22,0.00,,,0.00,Wunderground v.1.15,2013-05-07 02:14:00,
2013-05-06 20:19:00,66.2,26.2,29.85,WNW,283,0.0,0.0,22,0.00,,,0.00,Wunderground v.1.15,2013-05-07 02:19:00,
2013-05-06 20:25:00,66.0,26.0,29.85,WNW,283,0.0,0.0,22,0.00,,,0.00,Wunderground v.1.15,2013-05-07 02:25:00,
2013-05-06 20:35:00,65.7,26.9,29.86,WNW,283,0.0,7.0,23,0.00,,,0.00,Wunderground v.1.15,2013-05-07 02:35:00,
2013-05-06 20:40:00,65.6,26.8,29.86,WNW,283,0.0,0.0,23,0.00,,,0.00,Wunderground v.1.15,2013-05-07 02:40:00,
2013-05-06 20:45:00,65.4,26.6,29.86,WNW,283,0.0,0.0,23,0.00,,,0.00,Wunderground v.1.15,2013-05-07 02:45:00,
2013-05-06 20:50:00,65.4,26.6,29.86,WNW,283,0.0,0.0,23,0.00,,,0.00,Wunderground v.1.15,2013-05-07 02:50:00,
2013-05-06 21:00:00,65.6,26.8,29.86,West,273,1.0,1.0,23,0.00,,,0.00,Wunderground v.1.15,2013-05-07 03:00:00,
2013-05-06 21:05:00,65.6,26.8,29.86,West,273,0.0,2.0,23,0.00,,,0.00,Wunderground v.1.15,2013-05-07 03:05:00,
2013-05-06 21:09:00,65.6,26.8,29.87,West,273,0.0,0.0,23,0.00,,,0.00,Wunderground v.1.15,2013-05-07 03:09:00,
2013-05-06 21:15:00,65.5,26.7,29.87,West,274,0.0,0.0,23,0.00,,,0.00,Wunderground v.1.15,2013-05-07 03:15:00,
2013-05-06 21:20:00,65.4,26.6,29.87,West,274,0.0,0.0,23,0.00,,,0.00,Wunderground v.1.15,2013-05-07 03:20:00,
2013-05-06 21:25:00,65.3,27.5,29.87,West,276,1.0,2.0,24,0.00,,,0.00,Wunderground v.1.15,2013-05-07 03:25:00,
2013-05-06 21:30:00,65.4,27.6,29.88,West,276,1.0,2.0,24,0.00,,,0.00,Wunderground v.1.15,2013-05-07 03:30:00,
2013-05-06 21:35:00,65.4,27.6,29.88,West,276,0.0,2.0,24,0.00,,,0.00,Wunderground v.1.15,2013-05-07 03:35:00,
2013-05-06 21:40:00,65.3,27.5,29.88,West,276,0.0,0.0,24,0.00,,,0.00,Wunderground v.1.15,2013-05-07 03:40:00,
2013-05-06 21:45:00,65.3,27.5,29.88,West,276,0.0,0.0,24,0.00,,,0.00,Wunderground v.1.15,2013-05-07 03:45:00,
2013-05-06 21:50:00,65.2,27.5,29.88,West,276,0.0,1.0,24,0.00,,,0.00,Wunderground v.1.15,2013-05-07 03:50:00,
2013-05-06 21:55:00,65.0,27.3,29.88,West,276,0.0,1.0,24,0.00,,,0.00,Wunderground v.1.15,2013-05-07 03:55:00,
2013-05-06 22:00:00,64.8,27.1,29.88,West,276,0.0,0.0,24,0.00,,,0.00,Wunderground v.1.15,2013-05-07 04:00:00,
2013-05-06 22:05:00,64.6,27.9,29.88,West,276,0.0,2.0,25,0.00,,,0.00,Wunderground v.1.15,2013-05-07 04:05:00,
2013-05-06 22:15:00,64.3,27.7,29.89,West,276,0.0,0.0,25,0.00,,,0.00,Wunderground v.1.15,2013-05-07 04:15:00,
2013-05-06 22:19:00,64.1,27.5,29.89,West,276,0.0,0.0,25,0.00,,,0.00,Wunderground v.1.15,2013-05-07 04:19:00,
2013-05-06 22:24:00,64.0,27.4,29.89,West,276,0.0,0.0,25,0.00,,,0.00,Wunderground v.1.15,2013-05-07 04:24:00,
2013-05-06 22:29:00,63.9,27.4,29.89,West,276,0.0,5.0,25,0.00,,,0.00,Wunderground v.1.15,2013-05-07 04:29:00,
2013-05-06 22:34:00,63.8,27.3,29.90,West,276,0.0,5.0,25,0.00,,,0.00,Wunderground v.1.15,2013-05-07 04:34:00,
2013-05-06 22:40:00,63.7,27.2,29.90,West,276,0.0,0.0,25,0.00,,,0.00,Wunderground v.1.15,2013-05-07 04:40:00,
2013-05-06 22:45:00,63.6,27.1,29.90,West,276,0.0,0.0,25,0.00,,,0.00,Wunderground v.1.15,2013-05-07 04:45:00,
2013-05-06 22:55:00,63.4,27.9,29.90,West,276,0.0,0.0,26,0.00,,,0.00,Wunderground v.1.15,2013-05-07 04:55:00,
2013-05-06 23:00:00,63.2,28.6,29.91,West,276,0.0,0.0,27,0.00,,,0.00,Wunderground v.1.15,2013-05-07 05:00:00,
2013-05-06 23:05:00,63.1,28.5,29.91,West,276,0.0,0.0,27,0.00,,,0.00,Wunderground v.1.15,2013-05-07 05:05:00,
2013-05-06 23:10:00,62.9,29.3,29.91,West,276,0.0,0.0,28,0.00,,,0.00,Wunderground v.1.15,2013-05-07 05:10:00,
2013-05-06 23:15:00,62.7,30.0,29.91,West,276,0.0,0.0,29,0.00,,,0.00,Wunderground v.1.15,2013-05-07 05:15:00,
2013-05-06 23:20:00,62.5,30.6,29.91,West,276,0.0,0.0,30,0.00,,,0.00,Wunderground v.1.15,2013-05-07 05:20:00,
2013-05-06 23:25:00,62.3,31.3,29.91,West,276,0.0,0.0,31,0.00,,,0.00,Wunderground v.1.15,2013-05-07 05:25:00,
2013-05-06 23:30:00,62.1,33.4,29.91,West,276,0.0,0.0,34,0.00,,,0.00,Wunderground v.1.15,2013-05-07 05:30:00,
2013-05-06 23:35:00,61.8,33.1,29.91,West,276,0.0,0.0,34,0.00,,,0.00,Wunderground v.1.15,2013-05-07 05:35:00,
2013-05-06 23:40:00,61.6,35.1,29.91,West,276,0.0,0.0,37,0.00,,,0.00,Wunderground v.1.15,2013-05-07 05:40:00,
2013-05-06 23:45:00,61.5,34.3,29.91,West,276,0.0,0.0,36,0.00,,,0.00,Wunderground v.1.15,2013-05-07 05:45:00,
2013-05-06 23:50:00,61.4,36.2,29.91,West,276,0.0,0.0,39,0.00,,,0.00,Wunderground v.1.15,2013-05-07 05:50:00,
2013-05-06 23:55:00,61.2,36.7,29.91,West,276,0.0,0.0,40,0.00,,,0.00,Wunderground v.1.15,2013-05-07 05:55:00,